Weather History for KMIW - February, 2015

Change the Weather History Date:

Wednesday, February 18, 2015

  Actual Average Record
Temperature  
Mean Temperature 3 °F 24 °F  
Max Temperature 8 °F 33 °F 60 °F (2002)
Min Temperature -3 °F 15 °F -16 °F (2006)
Degree Days  
Heating Degree Days 62 41  
Month to date heating degree days 900 780  
Since 1 July heating degree days 5045 5013  
Cooling Degree Days 0 0  
Month to date cooling degree days 0 0  
Year to date cooling degree days 0 0  
Moisture  
Dew Point -7 °F    
Average Humidity 63    
Maximum Humidity 76    
Minimum Humidity 50    
Precipitation  
Precipitation T in 0.02 in 0.14 in (1998)
Month to date precipitation 0.12 0.45  
Sea Level Pressure  
Sea Level Pressure 30.23 in    
Wind  
Wind Speed 19 mph (NW)    
Max Wind Speed 31 mph    
Max Gust Speed 37 mph    
Visibility 9 miles    
Events Snow    
T = Trace of Precipitation, MM = Missing Value Source: NWS Daily Summary

Daily Weather History Graph

Daily Weather History Graph

Search for Another Location

Airport or City:

Trip Planner

Search our weather history database for the weather conditions in past years. The results will help you decide how hot, cold, wet, or windy it might be!

Date:

Astronomy

Feb. 18, 2015 Rise Set
Actual Time 7:03 AM CST 5:47 PM CST
Civil Twilight 6:35 AM CST 6:16 PM CST
Nautical Twilight 6:02 AM CST 6:49 PM CST
Astronomical Twilight 5:30 AM CST 7:21 PM CST
Moon 6:33 AM CST (2/18) 5:50 PM CST (2/18)
Length of Visible Light 11h 41m
Length of Day
10h 44m
Waning Crescent, 0% of the Moon is Illuminated
Feb 18
Waning Crescent
Feb 18
New
Feb 25
First Quarter
Mar 5
Full
Mar 13
Last Quarter

Hourly Weather History & Observations

Time (CST) Temp. Windchill Dew Point Humidity Pressure Visibility Wind Dir Wind Speed Gust Speed Precip Events Conditions
12:53 AM 8.1 °F -13.0 °F 1.0 °F 73% 30.03 in 3.0 mi NNW 24.2 mph 31.1 mph 0.00 in Snow Light Snow
12:55 AM 8.1 °F -11.7 °F 1.0 °F 73% 29.97 in 2.0 mi NNW 20.7 mph 31.1 mph 0.00 in Snow Light Snow
12:58 AM 8.1 °F -12.6 °F 3.0 °F 80% 29.97 in 1.5 mi NNW 23.0 mph 31.1 mph 0.00 in Snow Light Snow
1:04 AM 8.1 °F -11.2 °F 1.0 °F 73% 29.97 in 2.5 mi NNW 19.6 mph - 0.00 in Snow Light Snow
1:11 AM 7.0 °F -13.6 °F -0.9 °F 70% 29.97 in 9.0 mi NNW 21.9 mph 29.9 mph 0.00 in   Scattered Clouds
1:53 AM 3.9 °F -19.0 °F -5.1 °F 66% 30.05 in 10.0 mi NNW 25.3 mph 35.7 mph 0.00 in   Partly Cloudy
2:53 AM 1.0 °F -20.9 °F -7.1 °F 69% 30.07 in 10.0 mi NW 20.7 mph 27.6 mph N/A   Clear
3:53 AM -0.0 °F -22.9 °F -9.0 °F 66% 30.10 in 10.0 mi NW 21.9 mph - N/A   Partly Cloudy
4:53 AM -0.9 °F -22.4 °F -11.0 °F 62% 30.13 in 10.0 mi NNW 18.4 mph 28.8 mph N/A   Clear
5:53 AM -2.0 °F -23.9 °F -9.9 °F 69% 30.17 in 10.0 mi NW 18.4 mph - N/A   Clear
6:53 AM -2.9 °F -25.0 °F -11.0 °F 68% 30.19 in 10.0 mi NW 18.4 mph - N/A   Clear
7:53 AM -2.9 °F -27.2 °F -11.0 °F 68% 30.23 in 10.0 mi NW 23.0 mph 27.6 mph N/A   Clear
8:53 AM -0.9 °F -21.9 °F -11.0 °F 62% 30.25 in 10.0 mi NNW 17.3 mph 26.5 mph N/A   Partly Cloudy
9:53 AM 1.0 °F -21.9 °F -11.0 °F 57% 30.28 in 10.0 mi NW 23.0 mph 32.2 mph N/A   Scattered Clouds
10:53 AM 3.0 °F -19.3 °F -9.0 °F 57% 30.30 in 10.0 mi NW 23.0 mph - N/A   Partly Cloudy
11:26 AM 3.9 °F -17.6 °F -8.0 °F 58% 30.24 in 10.0 mi NW 21.9 mph - N/A   Mostly Cloudy
11:43 AM 3.9 °F -19.4 °F -8.0 °F 58% 30.24 in 10.0 mi NW 26.5 mph 32.2 mph N/A   Mostly Cloudy
11:53 AM 3.9 °F -19.0 °F -8.0 °F 58% 30.31 in 10.0 mi NW 25.3 mph - N/A   Mostly Cloudy
12:11 PM 5.0 °F -17.5 °F -8.0 °F 55% 30.24 in 10.0 mi NW 25.3 mph 31.1 mph N/A   Mostly Cloudy
12:37 PM 6.1 °F -15.2 °F -9.0 °F 50% 30.24 in 10.0 mi NW 23.0 mph 32.2 mph N/A   Mostly Cloudy
12:53 PM 6.1 °F -16.1 °F -7.1 °F 55% 30.30 in 10.0 mi NW 25.3 mph 32.2 mph N/A   Mostly Cloudy
1:06 PM 7.0 °F -14.0 °F -8.0 °F 51% 30.24 in 10.0 mi NW 23.0 mph 31.1 mph N/A   Scattered Clouds
1:53 PM 7.0 °F -15.3 °F -8.0 °F 51% 30.31 in 10.0 mi NW 26.5 mph 29.9 mph N/A   Mostly Cloudy
2:53 PM 7.0 °F -14.0 °F -7.1 °F 53% 30.32 in 10.0 mi NW 23.0 mph - N/A   Mostly Cloudy
3:53 PM 8.1 °F -13.4 °F -7.1 °F 50% 30.33 in 10.0 mi NW 25.3 mph 31.1 mph N/A   Overcast
4:53 PM 7.0 °F -11.6 °F -5.1 °F 58% 30.34 in 10.0 mi NW 17.3 mph - N/A   Mostly Cloudy
5:53 PM 5.0 °F -14.2 °F -7.1 °F 58% 30.35 in 10.0 mi NW 17.3 mph - N/A   Partly Cloudy
6:53 PM 3.0 °F -14.8 °F -7.1 °F 63% 30.37 in 10.0 mi NW 13.8 mph - N/A   Clear
7:53 PM 1.9 °F -13.8 °F -7.1 °F 66% 30.39 in 10.0 mi NW 10.4 mph - N/A   Clear
8:53 PM -0.0 °F -14.2 °F -8.0 °F 69% 30.39 in 10.0 mi NW 8.1 mph - N/A   Clear
9:53 PM 1.0 °F -17.3 °F -8.0 °F 66% 30.40 in 10.0 mi NW 13.8 mph - N/A   Clear
10:53 PM 1.0 °F -17.3 °F -8.0 °F 66% 30.40 in 10.0 mi NW 13.8 mph - N/A   Clear
11:53 PM -0.0 °F -18.0 °F -9.0 °F 66% 30.41 in 10.0 mi NW 12.7 mph - N/A   Clear